When you browse on this site, cookies collect data to enhance your experience and personalize the content and advertising you see.
Visit our Privacy Policy to learn more. By continuing to use the site, you agree to this use of cookies and data.
  • In Czech Republic
  • List of Countries
  • For 7 days
  • Water Temperature
  • Satellite Maps
  • Weather Map
  • Weather Widgets
  • user-avatar
    Login

    Hourly Weather Alcala de Guadaira

    Today, 18 November, Sunday

    Time Temperature Precipitation Wind Pressure Humidity
    00:00 +17°C° 0 mm 3 mps 750 mmHg 76%
    01:00 +17°C° 0.3 mm 3 mps 749 mmHg 77%
    02:00 +16°C° 0.3 mm 2 mps 749 mmHg 79%
    03:00 +16°C° 0.3 mm 2 mps 749 mmHg 80%
    04:00 +16°C° 1.1 mm 2 mps 748 mmHg 81%
    05:00 +16°C° 1.1 mm 3 mps 748 mmHg 83%
    06:00 +16°C° 1.1 mm 3 mps 748 mmHg 84%
    07:00 +16°C° 2 mm 3 mps 748 mmHg 85%
    08:00 +16°C° 2 mm 3 mps 747 mmHg 86%
    09:00 +14°C° 2 mm 3 mps 747 mmHg 87%
    10:00 +16°C° 1.5 mm 3 mps 747 mmHg 85%
    11:00 +15°C° 1.5 mm 4 mps 747 mmHg 83%
    12:00 +17°C° 1.5 mm 4 mps 747 mmHg 81%
    13:00 +17°C° 1 mm 4 mps 747 mmHg 79%
    14:00 +17°C° 1 mm 4 mps 746 mmHg 77%
    15:00 +17°C° 1 mm 4 mps 746 mmHg 76%
    16:00 +15°C° 0.6 mm 4 mps 746 mmHg 78%
    17:00 +16°C° 0.6 mm 3 mps 746 mmHg 81%
    18:00 +14°C° 0.6 mm 3 mps 746 mmHg 84%
    19:00 +14°C° 0.2 mm 3 mps 746 mmHg 85%
    20:00 +13°C° 0.2 mm 3 mps 746 mmHg 86%
    21:00 +13°C° 0.2 mm 3 mps 746 mmHg 87%
    22:00 +13°C° 0.1 mm 3 mps 746 mmHg 87%
    23:00 +14°C° 0.1 mm 2 mps 746 mmHg 87%

    Tomorrow, 19 November, Monday

    Time Temperature Precipitation Wind Pressure Humidity
    00:00 +14°C° 0.1 mm 2 mps 746 mmHg 88%
    01:00 +14°C° 0.2 mm 2 mps 746 mmHg 88%
    02:00 +13°C° 0.2 mm 2 mps 746 mmHg 89%
    03:00 +13°C° 0.2 mm 2 mps 746 mmHg 89%
    04:00 +13°C° 0.2 mm 2 mps 746 mmHg 89%
    05:00 +13°C° 0.2 mm 2 mps 746 mmHg 90%
    06:00 +13°C° 0.2 mm 2 mps 747 mmHg 90%
    07:00 +13°C° 0 mm 1 mps 747 mmHg 88%
    08:00 +14°C° 0 mm 1 mps 747 mmHg 86%
    09:00 +14°C° 0 mm 1 mps 748 mmHg 84%
    10:00 +15°C° 0.1 mm 2 mps 748 mmHg 80%
    11:00 +16°C° 0.1 mm 2 mps 748 mmHg 77%
    12:00 +17°C° 0.1 mm 3 mps 748 mmHg 74%
    13:00 +17°C° 0.3 mm 4 mps 748 mmHg 73%
    14:00 +17°C° 0.3 mm 4 mps 748 mmHg 72%
    15:00 +16°C° 0.3 mm 5 mps 747 mmHg 71%
    16:00 +15°C° 0.2 mm 4 mps 748 mmHg 74%
    17:00 +15°C° 0.2 mm 4 mps 748 mmHg 77%
    18:00 +14°C° 0.2 mm 3 mps 748 mmHg 80%
    19:00 +14°C° 0.1 mm 3 mps 748 mmHg 81%
    20:00 +14°C° 0.1 mm 3 mps 749 mmHg 82%
    21:00 +14°C° 0.1 mm 2 mps 749 mmHg 83%
    22:00 +14°C° 0.1 mm 2 mps 749 mmHg 85%
    23:00 +14°C° 0.1 mm 2 mps 748 mmHg 86%

    Day after tomorrow, 20 November, Tuesday

    Time Temperature Precipitation Wind Pressure Humidity
    00:00 +13°C° 0.1 mm 2 mps 748 mmHg 88%
    01:00 +13°C° 0.4 mm 2 mps 748 mmHg 89%
    02:00 +13°C° 0.4 mm 2 mps 747 mmHg 89%
    03:00 +13°C° 0.4 mm 1 mps 747 mmHg 90%
    04:00 +13°C° 0.9 mm 2 mps 747 mmHg 91%
    05:00 +13°C° 0.9 mm 2 mps 747 mmHg 91%
    06:00 +14°C° 0.9 mm 2 mps 746 mmHg 91%
    07:00 +14°C° 0.3 mm 2 mps 747 mmHg 89%
    08:00 +13°C° 0.3 mm 3 mps 747 mmHg 87%
    09:00 +14°C° 0.3 mm 3 mps 748 mmHg 85%
    10:00 +15°C° 0.2 mm 5 mps 748 mmHg 77%
    11:00 +16°C° 0.2 mm 6 mps 748 mmHg 70%
    12:00 +16°C° 0.2 mm 7 mps 749 mmHg 63%
    13:00 +16°C° 0.3 mm 8 mps 748 mmHg 63%
    14:00 +16°C° 0.3 mm 8 mps 748 mmHg 64%
    15:00 +16°C° 0.3 mm 8 mps 748 mmHg 64%
    16:00 +15°C° 0.1 mm 7 mps 749 mmHg 68%
    17:00 +15°C° 0.1 mm 6 mps 749 mmHg 72%
    18:00 +14°C° 0.1 mm 5 mps 749 mmHg 76%
    19:00 +14°C° 0 mm 5 mps 750 mmHg 78%
    20:00 +13°C° 0 mm 5 mps 751 mmHg 81%
    21:00 +13°C° 0 mm 5 mps 751 mmHg 83%
    22:00 +13°C° 0.1 mm 4 mps 752 mmHg 85%
    23:00 +13°C° 0.1 mm 3 mps 752 mmHg 86%

    21 November, Wednesday

    Time Temperature Precipitation Wind Pressure Humidity
    00:00 +12°C° 0.1 mm 3 mps 752 mmHg 88%
    01:00 +13°C° 0.1 mm 2 mps 752 mmHg 89%
    02:00 +13°C° 0.1 mm 2 mps 752 mmHg 89%
    03:00 +12°C° 0.1 mm 2 mps 752 mmHg 90%
    04:00 +12°C° 0.4 mm 2 mps 752 mmHg 90%
    05:00 +13°C° 0.4 mm 2 mps 752 mmHg 91%
    06:00 +13°C° 0.4 mm 2 mps 752 mmHg 91%
    07:00 +13°C° 0.3 mm 2 mps 752 mmHg 88%
    08:00 +13°C° 0.3 mm 3 mps 753 mmHg 85%
    09:00 +13°C° 0.3 mm 3 mps 753 mmHg 82%
    10:00 +14°C° 0.1 mm 4 mps 754 mmHg 76%
    11:00 +15°C° 0.1 mm 4 mps 754 mmHg 69%
    12:00 +17°C° 0.1 mm 4 mps 754 mmHg 62%
    13:00 +16°C° 0.1 mm 5 mps 754 mmHg 61%
    14:00 +16°C° 0.1 mm 5 mps 754 mmHg 60%
    15:00 +16°C° 0.1 mm 5 mps 754 mmHg 60%
    16:00 +15°C° 0.2 mm 4 mps 754 mmHg 66%
    17:00 +14°C° 0.2 mm 4 mps 754 mmHg 72%
    18:00 +13°C° 0.2 mm 3 mps 754 mmHg 79%
    19:00 +13°C° 0.4 mm 3 mps 755 mmHg 81%
    20:00 +12°C° 0.4 mm 3 mps 755 mmHg 83%
    21:00 +13°C° 0.4 mm 2 mps 755 mmHg 85%
    22:00 +13°C° 0.3 mm 2 mps 755 mmHg 86%
    23:00 +12°C° 0.3 mm 2 mps 755 mmHg 87%

    22 November, Thursday

    Time Temperature Precipitation Wind Pressure Humidity
    00:00 +12°C° 0.3 mm 1 mps 755 mmHg 87%
    01:00 +12°C° 0.1 mm 1 mps 755 mmHg 88%
    02:00 +12°C° 0.1 mm 1 mps 755 mmHg 88%
    03:00 +11°C° 0.1 mm 1 mps 755 mmHg 88%
    04:00 +11°C° 0.2 mm 1 mps 755 mmHg 88%
    05:00 +11°C° 0.2 mm 1 mps 755 mmHg 89%
    06:00 +11°C° 0.2 mm 1 mps 755 mmHg 89%
    07:00 +12°C° 0.4 mm 1 mps 756 mmHg 87%
    08:00 +12°C° 0.4 mm 1 mps 756 mmHg 85%
    09:00 +13°C° 0.4 mm 1 mps 756 mmHg 83%
    10:00 +14°C° 0.6 mm 2 mps 756 mmHg 78%
    11:00 +14°C° 0.6 mm 3 mps 756 mmHg 74%
    12:00 +16°C° 0.6 mm 3 mps 756 mmHg 69%
    13:00 +15°C° 0.4 mm 4 mps 756 mmHg 68%
    14:00 +15°C° 0.4 mm 4 mps 756 mmHg 67%
    15:00 +15°C° 0.4 mm 4 mps 756 mmHg 67%
    16:00 +14°C° 0.2 mm 4 mps 756 mmHg 72%
    17:00 +13°C° 0.2 mm 3 mps 756 mmHg 77%
    18:00 +13°C° 0.2 mm 2 mps 757 mmHg 81%
    19:00 +13°C° 0.1 mm 2 mps 757 mmHg 83%
    20:00 +13°C° 0.1 mm 2 mps 758 mmHg 84%
    21:00 +12°C° 0.1 mm 2 mps 758 mmHg 85%
    22:00 +12°C° 0 mm 2 mps 758 mmHg 86%
    23:00 +12°C° 0 mm 2 mps 758 mmHg 86%

    23 November, Friday

    Time Temperature Precipitation Wind Pressure Humidity
    00:00 +12°C° 0 mm 1 mps 758 mmHg 86%
    01:00 +12°C° 0.1 mm 1 mps 758 mmHg 86%
    02:00 +11°C° 0.1 mm 1 mps 758 mmHg 87%
    03:00 +11°C° 0.1 mm 1 mps 758 mmHg 87%
    04:00 +11°C° 0.1 mm 1 mps 758 mmHg 87%
    05:00 +11°C° 0.1 mm 1 mps 758 mmHg 87%
    06:00 +10°C° 0.1 mm 2 mps 758 mmHg 87%
    07:00 +12°C° 0.1 mm 2 mps 758 mmHg 85%
    08:00 +12°C° 0.1 mm 2 mps 759 mmHg 83%
    09:00 +13°C° 0.1 mm 2 mps 759 mmHg 80%
    10:00 +14°C° 0.1 mm 2 mps 759 mmHg 75%
    11:00 +15°C° 0.1 mm 2 mps 758 mmHg 70%
    12:00 +16°C° 0.1 mm 2 mps 758 mmHg 65%
    13:00 +17°C° 0.1 mm 2 mps 757 mmHg 64%
    14:00 +17°C° 0.1 mm 2 mps 757 mmHg 64%
    15:00 +18°C° 0.1 mm 1 mps 756 mmHg 63%
    16:00 +16°C° 0.1 mm 1 mps 756 mmHg 68%
    17:00 +15°C° 0.1 mm 1 mps 757 mmHg 72%
    18:00 +14°C° 0.1 mm 1 mps 757 mmHg 77%
    19:00 +14°C° 0.2 mm 1 mps 757 mmHg 79%
    20:00 +14°C° 0.2 mm 1 mps 757 mmHg 81%
    21:00 +13°C° 0.2 mm 1 mps 757 mmHg 83%
    22:00 +13°C° 0.3 mm 1 mps 757 mmHg 84%
    23:00 +13°C° 0.3 mm 1 mps 757 mmHg 85%
    Show more